This is the latest recevied weather packets stored in our database for station/object W1MDM-10. If no packets are shown the sender has not sent any weather packets the latest 10 day(s).
| Time | Temp. | Humidity | Pressure | Rain* | Wind** | Luminosity | Snow |
|---|---|---|---|---|---|---|---|
| 1787940045 | 34.44° C | 60% | 1017.1 hPa | 0 mm | - | - | - |
| 1787939745 | 33.89° C | 63% | 1017.1 hPa | 0 mm | - | - | - |
| 1787939445 | 33.33° C | 63% | 1017.3 hPa | 0 mm | - | - | - |
| 1787939145 | 33.33° C | 61% | 1017.3 hPa | 0 mm | - | - | - |
| 1787938845 | 33.33° C | 62% | 1017.3 hPa | 0 mm | - | - | - |
| 1787938545 | 33.33° C | 62% | 1017.3 hPa | 0 mm | - | - | - |
| 1787938245 | 33.33° C | 60% | 1017.3 hPa | 0 mm | - | - | - |
| 1787937945 | 33.33° C | 62% | 1017.4 hPa | 0 mm | - | - | - |
| 1787937645 | 33.33° C | 63% | 1017.4 hPa | 0 mm | - | - | - |
| 1787937351 | 33.33° C | 62% | 1017.6 hPa | 0 mm | - | - | - |
| 1787937045 | 33.33° C | 62% | 1017.6 hPa | 0 mm | - | - | - |
| 1787936745 | 33.33° C | 63% | 1017.7 hPa | 0 mm | - | - | - |
| 1787936445 | 33.33° C | 63% | 1017.8 hPa | 0 mm | - | - | - |
| 1787936145 | 33.33° C | 62% | 1017.9 hPa | 0 mm | - | - | - |
| 1787935845 | 33.33° C | 63% | 1017.9 hPa | 0 mm | - | - | - |
| 1787935545 | 33.33° C | 64% | 1017.9 hPa | 0 mm | - | - | - |
| 1787935245 | 33.33° C | 66% | 1017.9 hPa | 0 mm | - | - | - |
| 1787934945 | 32.78° C | 66% | 1017.9 hPa | 0 mm | - | - | - |
| 1787934645 | 32.22° C | 66% | 1017.8 hPa | 0 mm | - | - | - |
| 1787934354 | 32.22° C | 68% | 1017.9 hPa | 0 mm | - | - | - |
| 1787934045 | 31.67° C | 67% | 1017.8 hPa | 0 mm | - | - | - |
| 1787933745 | 32.22° C | 66% | 1017.7 hPa | 0 mm | - | - | - |
| 1787933445 | 31.67° C | 69% | 1017.7 hPa | 0 mm | - | - | - |
| 1787933145 | 31.11° C | 70% | 1017.6 hPa | 0 mm | - | - | - |
| 1787932845 | 31.11° C | 71% | 1017.6 hPa | 0 mm | - | - | - |
* Rain latest hour (hover to see other rain measurements)
** Current wind speed in m/s (hover to see current wind gust speed)